This is the latest recevied weather packets stored in our database for station/object K7CTM. If no packets are shown the sender has not sent any weather packets the latest 10 day(s).
| Time | Temp. | Humidity | Pressure | Rain* | Wind** | Luminosity | Snow |
|---|---|---|---|---|---|---|---|
| 1777762682 | 22.22° C | 31% | 1025 hPa | 0 mm | - | 452 W/m² | - |
| 1777762379 | 21.67° C | 31% | 1024.8 hPa | 0 mm | - | 501 W/m² | - |
| 1777762075 | 21.11° C | 32% | 1024.8 hPa | 0 mm | - | 322 W/m² | - |
| 1777761772 | 21.67° C | 31% | 1024.8 hPa | 0 mm | - | 224 W/m² | - |
| 1777761469 | 21.11° C | 31% | 1024.8 hPa | 0 mm | - | 398 W/m² | - |
| 1777761168 | 21.11° C | 31% | 1024.9 hPa | 0 mm | - | 274 W/m² | - |
| 1777760865 | 21.11° C | 33% | 1025.2 hPa | 0 mm | - | 375 W/m² | - |
| 1777760562 | 20.56° C | 33% | 1025 hPa | 0 mm | - | 277 W/m² | - |
| 1777760257 | 20.56° C | 34% | 1025.2 hPa | 0 mm | - | 218 W/m² | - |
| 1777759954 | 21.11° C | 32% | 1024.8 hPa | 0 mm | - | 198 W/m² | - |
| 1777759651 | 22.22° C | 30% | 1025.2 hPa | 0 mm | - | 218 W/m² | - |
| 1777759347 | 22.22° C | 30% | 1025.3 hPa | 0 mm | - | 602 W/m² | - |
| 1777759044 | 21.11° C | 30% | 1025.4 hPa | 0 mm | - | 565 W/m² | - |
| 1777758741 | 21.11° C | 29% | 1025.3 hPa | 0 mm | - | 217 W/m² | - |
| 1777758438 | 23.89° C | 28% | 1025.5 hPa | 0 mm | - | 488 W/m² | - |
| 1777758135 | 23.89° C | 29% | 1025.4 hPa | 0 mm | - | 742 W/m² | - |
| 1777757832 | 23.33° C | 29% | 1025.5 hPa | 0 mm | - | 819 W/m² | - |
| 1777757530 | 22.78° C | 30% | 1025.4 hPa | 0 mm | - | 558 W/m² | - |
| 1777757228 | 22.22° C | 30% | 1025.6 hPa | 0 mm | - | 345 W/m² | - |
| 1777756926 | 21.67° C | 30% | 1025.3 hPa | 0 mm | - | 271 W/m² | - |
| 1777756621 | 22.22° C | 28% | 1025.6 hPa | 0 mm | - | 436 W/m² | - |
| 1777756319 | 22.78° C | 30% | 1025.5 hPa | 0 mm | - | 687 W/m² | - |
| 1777756016 | 22.78° C | 27% | 1025.6 hPa | 0 mm | - | 644 W/m² | - |
| 1777755713 | 23.33° C | 25% | 1025.4 hPa | 0 mm | - | 664 W/m² | - |
| 1777755410 | 22.78° C | 26% | 1025.5 hPa | 0 mm | - | 657 W/m² | - |
* Rain latest hour (hover to see other rain measurements)
** Current wind speed in m/s (hover to see current wind gust speed)